[[{"header":{"parameterUnit":"m.s-1","parameterCategory":1,"la1":30.2991,"la2":30.254,"lo1":-89.0895,"lo2":-89.0444,"dy":0.0017,"dx":0.0017,"nx":28,"ny":28,"refTime":"2024-07-05T09:00:00:Z","depth":0,"parameterNumber":2,"parameterNumberName":"U-component_of_WINDS"},"data":[0,0,0,0,0,0,0,0,0,0,0,0,0,0,0,0,0,0,0,0,0,0,0,0,0,0,0,0,0,0,0,0,0,0,0,0,0,0,0,0,0,0,0,0,0,0,0,0,0,0,0,0,0,0,0,0,0,0,2.0064,2.0065,0,2.0099,2.0099,2.01,2.0015,2.0012,2.001,2.0007,2.0045,2.0048,2.0052,0,0,0,0,0,0,0,0,0,0,0,0,0,1.9925,1.9928,2.0064,2.0065,2.0065,2.0099,2.0099,2.01,2.0015,2.0012,2.0009,2.0006,2.0044,2.0048,2.0052,0,0,0,0,0,0,0,0,0,0,0,0,0,1.9976,1.9929,2.0064,2.0027,2.0024,2.0099,2.0099,2.01,2.0016,2.0012,2.0008,2.0004,2.0043,2.0048,2.0053,2.0166,0,0,2.0069,2.0071,0,0,0,0,0,0,0,0,1.9973,1.9981,2.0032,2.003,2.0026,2.0048,2.0064,2.0122,2.0017,2.0019,2.0007,2.0002,2.005,2.0054,2.0069,2.0168,2.0169,2.0069,2.0073,2.0075,2.0076,0,0,0,0,0,0,0,1.997,1.9979,2.0078,2.0033,2.003,2.0009,2.0011,2.0075,2.0057,2.0019,2.0013,2.0018,2.0047,2.0065,2.007,2.017,2.0069,2.0074,2.0077,2.0079,2.036,2.0364,0,0,0,0,0,0,1.9971,1.9977,2.0077,2.0079,1.9989,2.0015,2.0017,2.0046,2.0056,2.0053,2.0021,2.0014,2.0058,2.0064,2.0071,2.0201,2.0075,2.008,2.0083,2.0355,2.036,2.0365,0,0,0,0,0,0,1.9968,1.998,2.0076,2.0026,2.0037,2.0021,2.0053,2.0048,2.0065,2.0058,2.0054,2.0042,2.0055,2.0063,2.0142,2.0202,2.0082,2.0087,2.035,2.0357,2.0363,2.0465,0,0,0,0,0,0,1.9964,1.998,2.0023,2.0028,2.004,2.0146,2.0057,2.0052,2.0074,2.0065,2.0076,2.0074,2.0052,2.0135,2.0147,2.0207,2.0091,2.0345,2.0353,2.0361,2.0457,2.0475,2.049,0,0,0,0,0,1.996,2.0052,2.0025,2.0038,2.0093,2.015,2.0157,2.0129,2.008,2.0122,2.0117,2.0074,2.0193,2.0143,2.0157,2.0219,2.0341,2.0351,2.036,2.0449,2.0471,2.049,0,0,0,0,0,0,2.0056,2.0052,2.0023,2.0119,2.0135,2.0136,2.0189,2.0153,2.0185,2.0175,2.0139,2.0143,2.0228,2.0231,2.0176,2.0327,2.0259,2.0272,2.0322,2.0342,2.0359,2.0356,2.0095,0,0,0,0,0,2.0088,2.0134,2.0128,2.0214,2.0223,2.0205,2.0229,2.0206,2.0221,2.0228,2.0229,2.0246,2.0287,2.0315,2.0353,2.0457,2.0457,2.0506,2.0523,2.0536,2.0548,2.06,2.0621,2.0397,2.0397,2.0396,0,0,2.0155,2.0159,2.019,2.0233,2.0243,2.0291,2.0211,2.0267,2.0302,2.0237,2.031,2.0311,2.0328,2.042,2.046,2.0425,2.061,2.0549,2.056,2.0563,2.0612,2.0634,2.0652,2.0403,2.0402,2.0401,0,0,2.0302,2.031,2.038,2.0392,2.0407,2.0394,2.0411,2.0416,2.0414,2.0487,2.0438,2.048,2.0552,2.0565,2.0582,2.0731,2.0692,2.0745,2.0831,2.0883,2.0901,2.0916,2.0967,2.0986,2.0756,2.0756,2.0756,0,2.0384,2.0454,2.0422,2.0479,2.0499,2.044,2.0511,2.0524,2.0552,2.0566,2.0527,2.0614,2.0622,2.0714,2.075,2.0766,2.0784,2.0743,2.0901,2.0916,2.093,2.0978,2.0998,2.0762,2.0762,2.0761,2.076,0,2.0553,2.0602,2.0658,2.0683,2.0709,2.0774,2.075,2.0781,2.0755,2.0746,2.0819,2.0826,2.0863,2.0883,2.086,2.0972,2.0949,2.0906,2.0836,2.0958,2.1002,2.1021,2.0771,2.0769,2.0767,2.0766,0,0,2.0761,2.0767,2.0787,2.0797,2.0809,2.0847,2.0908,2.0943,2.0968,2.0989,2.1038,2.11,2.1059,2.1077,2.1054,2.11,2.1215,2.1051,2.105,2.1079,2.1336,2.1368,2.139,2.119,2.1193,2.1196,2.1334,0,2.0904,2.1007,2.0979,2.1082,2.1127,2.1071,2.1124,2.1137,2.113,2.1166,2.1158,2.1201,2.1145,2.1156,2.1199,2.1192,2.1266,2.1182,2.1234,2.1236,2.123,2.1413,2.1447,2.1577,2.1352,2.1355,2.1357,0,2.1085,2.111,2.1218,2.122,2.1237,2.1285,2.1313,2.1349,2.1362,2.1354,2.1373,2.1341,2.14,2.133,2.1411,2.1354,2.1374,2.1374,2.1378,2.1381,2.1303,2.1419,2.1619,2.1637,2.1384,2.1382,2.138,0,2.1223,2.1285,2.1356,2.1367,2.1372,2.1406,2.141,2.1419,2.1441,2.1466,2.1479,2.1512,2.1529,2.1554,2.1531,2.1483,2.1614,2.1543,2.1608,2.1608,2.1637,2.1635,2.184,2.1653,2.1653,2.1652,2.1652,0,2.1385,2.1452,2.1418,2.1462,2.1535,2.1502,2.1575,2.1573,2.1581,2.1623,2.1578,2.1618,2.1585,2.1623,2.1605,2.1673,2.1682,2.1676,2.167,2.1679,2.1679,2.169,2.168,2.1657,2.1656,2.1655,2.1654,0,2.1551,2.1531,2.1605,2.1603,2.1604,2.1658,2.1656,2.1696,2.1685,2.1739,2.1749,2.1732,2.1774,2.1753,2.1797,2.1784,2.1871,2.1854,2.1867,2.1861,2.1926,2.192,2.2144,2.2171,2.1968,2.197,2.1972,0,2.1655,2.1705,2.1708,2.1732,2.1738,2.1778,2.1799,2.1768,2.1793,2.181,2.1848,2.1885,2.1913,2.1982,2.1973,2.2006,2.1988,2.2064,2.1993,2.1999,2.1987,2.1983,2.1987,2.2079,2.2081,2.2083,2.2085,0,2.184,2.1827,2.1859,2.1888,2.1914,2.1935,2.1952,2.1975,2.1944,2.1973,2.2014,2.2036,2.2079,2.2116,2.2144,2.2148,2.2111,2.2107,2.2123,2.2132,2.2136,2.2133,2.1904,2.2102,2.21,2.2099,2.2098,2.2097,2.1977,2.2017,2.2025,2.2062,2.2071,2.2088,2.2124,2.2117,2.2151,2.2182,2.2162,2.221,2.222,2.2253,2.2262,2.2298,2.2268,2.2292,2.2298,2.2304,2.2312,2.2132,2.2304,2.2303,2.2303,2.2302,2.2302,0,2.2157,2.2159,2.2193,2.2217,2.2246,2.2208,2.2225,2.2251,2.2294,2.2306,2.2333,2.238,2.2415,2.2409,2.244,2.2471,2.2455,2.248,2.2477,2.2478,2.2338,2.232,2.2493,2.2493,2.2492,2.2492,2.2492,2.2492,2.2254,2.2321,2.2309,2.2379,2.238,2.2425,2.2438,2.2453,2.2462,2.2515,2.2543,2.2539,2.2543,2.2574,2.2605,2.2602,2.2615,2.2646,2.2637,2.2507,2.2488,2.247,2.2452,2.265,2.265,2.2773,2.2774,2.2775]},{"header":{"parameterUnit":"m.s-1","parameterCategory":1,"la1":30.2991,"la2":30.254,"lo1":-89.0895,"lo2":-89.0444,"dy":0.0017,"dx":0.0017,"nx":28,"ny":28,"refTime":"2024-07-05T09:00:00:Z","depth":0,"parameterNumber":3,"parameterNumberName":"V-component_of_WINDS"},"data":[0,0,0,0,0,0,0,0,0,0,0,0,0,0,0,0,0,0,0,0,0,0,0,0,0,0,0,0,0,0,0,0,0,0,0,0,0,0,0,0,0,0,0,0,0,0,0,0,0,0,0,0,0,0,0,0,0,0,2.3434,2.3434,0,2.3471,2.3471,2.3472,2.345,2.3449,2.3448,2.3447,2.3483,2.3484,2.3486,0,0,0,0,0,0,0,0,0,0,0,0,0,2.334,2.3342,2.3434,2.3434,2.3435,2.3471,2.3471,2.3472,2.345,2.3449,2.3448,2.3447,2.3482,2.3484,2.3487,0,0,0,0,0,0,0,0,0,0,0,0,0,2.3379,2.3343,2.3433,2.3428,2.3428,2.3471,2.3471,2.3472,2.3451,2.3449,2.3448,2.3446,2.3481,2.3484,2.3487,2.3536,0,0,2.3496,2.3497,0,0,0,0,0,0,0,0,2.3377,2.3383,2.3429,2.3429,2.3429,2.3454,2.3451,2.3493,2.3451,2.3442,2.3447,2.3445,2.3474,2.3478,2.3488,2.3537,2.3539,2.3496,2.3498,2.3499,2.35,0,0,0,0,0,0,0,2.3375,2.3381,2.3448,2.3429,2.3429,2.3423,2.3427,2.3459,2.3466,2.3443,2.3441,2.3446,2.3474,2.3485,2.3489,2.3539,2.3496,2.3498,2.35,2.3501,2.3629,2.363,0,0,0,0,0,0,2.3373,2.3379,2.3447,2.3449,2.3399,2.3426,2.343,2.3448,2.3466,2.3467,2.3447,2.3445,2.3481,2.3485,2.349,2.3547,2.3499,2.3501,2.3503,2.3627,2.3629,2.3631,0,0,0,0,0,0,2.3371,2.3379,2.3446,2.3414,2.3422,2.3429,2.3449,2.3449,2.346,2.347,2.347,2.3458,2.348,2.3486,2.3524,2.3548,2.3503,2.3505,2.3625,2.3628,2.363,2.3662,0,0,0,0,0,0,2.3368,2.3378,2.3398,2.3414,2.3424,2.348,2.345,2.3451,2.3466,2.3463,2.348,2.3481,2.3479,2.352,2.3527,2.3551,2.3508,2.3623,2.3626,2.3629,2.3659,2.3665,2.367,0,0,0,0,0,2.3365,2.3405,2.3399,2.3407,2.3448,2.3482,2.3487,2.3485,2.3468,2.3487,2.3492,2.348,2.3544,2.3524,2.3532,2.3557,2.3621,2.3625,2.3629,2.3656,2.3664,2.367,0,0,0,0,0,0,2.339,2.3407,2.3401,2.3448,2.3464,2.3478,2.3502,2.3494,2.3514,2.3511,2.3507,2.3511,2.355,2.3558,2.3535,2.3604,2.358,2.3585,2.3598,2.3605,2.3611,2.3608,2.351,0,0,0,0,0,2.3402,2.3428,2.3441,2.3482,2.349,2.3495,2.3509,2.3507,2.3523,2.3529,2.3537,2.3553,2.3576,2.3591,2.3613,2.366,2.3662,2.3681,2.3687,2.3692,2.3696,2.3719,2.3727,2.3643,2.3643,2.3643,0,0,2.3425,2.3437,2.3454,2.3487,2.3499,2.3525,2.3501,2.353,2.3549,2.3533,2.357,2.3577,2.3593,2.3635,2.3654,2.3642,2.372,2.3696,2.37,2.3702,2.3724,2.3732,2.3739,2.3646,2.3645,2.3645,0,0,2.348,2.3493,2.3527,2.354,2.3558,2.3561,2.357,2.3585,2.3589,2.3626,2.3614,2.3637,2.3678,2.3689,2.3701,2.376,2.3748,2.3767,2.3797,2.382,2.3827,2.3833,2.3852,2.3859,2.3772,2.3772,2.3772,0,2.3506,2.3546,2.3545,2.3576,2.3589,2.3577,2.361,2.3623,2.3647,2.3656,2.3643,2.3693,2.3704,2.3748,2.3762,2.3772,2.378,2.3764,2.3826,2.3832,2.3837,2.3855,2.3863,2.3774,2.3773,2.3773,2.3773,0,2.3576,2.3605,2.363,2.3654,2.3671,2.3703,2.3705,2.3722,2.3718,2.3722,2.3759,2.3771,2.3795,2.3805,2.3801,2.3848,2.384,2.3827,2.3802,2.3847,2.3864,2.3871,2.3776,2.3776,2.3775,2.3775,0,0,2.3648,2.3671,2.368,2.3691,2.371,2.3732,2.3762,2.3786,2.38,2.3817,2.3841,2.3876,2.3864,2.3876,2.3874,2.3894,2.3938,2.3878,2.3878,2.3887,2.3988,2.3997,2.4005,2.3931,2.3933,2.3934,2.3986,0,2.3703,2.3757,2.3757,2.3806,2.3831,2.382,2.3846,2.386,2.3864,2.3885,2.389,2.3914,2.3896,2.3904,2.3924,2.3928,2.3958,2.3925,2.3952,2.3953,2.3946,2.4014,2.4023,2.4072,2.3993,2.3994,2.3995,0,2.3774,2.3794,2.3846,2.3861,2.3872,2.3895,2.3916,2.3937,2.3952,2.3954,2.3968,2.3962,2.3992,2.3968,2.4007,2.3985,2.3996,2.4,2.4002,2.4003,2.3975,2.4015,2.4088,2.4094,2.4006,2.4005,2.4004,0,2.3818,2.3859,2.3895,2.3904,2.3923,2.394,2.3948,2.3962,2.3976,2.3994,2.4003,2.4024,2.4035,2.4051,2.4051,2.4033,2.409,2.4066,2.4091,2.409,2.4102,2.41,2.4175,2.4112,2.4112,2.4112,2.4112,0,2.3879,2.391,2.3915,2.3937,2.3971,2.397,2.4004,2.4011,2.4024,2.4045,2.4037,2.4058,2.4056,2.4077,2.4077,2.4108,2.4114,2.4115,2.4114,2.4114,2.4114,2.412,2.4116,2.4114,2.4113,2.4113,2.4113,0,2.3933,2.3938,2.3976,2.3991,2.3995,2.402,2.4032,2.4052,2.4056,2.4084,2.409,2.4095,2.4119,2.412,2.4148,2.4147,2.4185,2.4182,2.418,2.4179,2.4202,2.4199,2.4282,2.4292,2.4224,2.4225,2.4225,0,2.3971,2.3995,2.4012,2.4027,2.4036,2.406,2.4074,2.4074,2.4089,2.4108,2.4125,2.4148,2.4166,2.4204,2.421,2.423,2.4226,2.4253,2.4228,2.4228,2.4224,2.4221,2.4223,2.4257,2.4258,2.4259,2.4259,0,2.4036,2.4036,2.4058,2.408,2.4097,2.4114,2.413,2.4142,2.4144,2.4161,2.4185,2.4199,2.4227,2.4249,2.4269,2.4276,2.4267,2.4267,2.4274,2.4274,2.4271,2.4271,2.4191,2.4265,2.4264,2.4264,2.4264,2.4264,2.4081,2.4102,2.4117,2.4141,2.4153,2.4168,2.4187,2.4193,2.4214,2.4237,2.4235,2.4262,2.4275,2.4301,2.431,2.433,2.432,2.433,2.4332,2.4334,2.4335,2.427,2.4333,2.4333,2.4333,2.4333,2.4333,0,2.4144,2.4153,2.4175,2.4198,2.4216,2.4208,2.4225,2.424,2.4264,2.4278,2.4296,2.4323,2.4345,2.4352,2.4373,2.4387,2.4383,2.4392,2.439,2.4391,2.4344,2.4335,2.4394,2.4394,2.4394,2.4394,2.4394,2.4394,2.4179,2.4212,2.4215,2.4254,2.4263,2.4289,2.4299,2.4312,2.4323,2.4354,2.4372,2.4377,2.4388,2.4409,2.4428,2.4429,2.4436,2.4446,2.4446,2.4401,2.4395,2.4389,2.4381,2.4449,2.4449,2.4492,2.4492,2.4492]}]]